| time (UTC) | temp F | wind direction | speed knots | gust knots | rain 1hr in | rain 24hr in | rain mn in | humidity % | barometer mb |
| 20260504004539 | 53 | 274 | 0.0 | 0.0 | 0.00 | 0.00 | 0.00 | 44 | 1012.0 |
| 20260504003025 | 54 | 274 | 0.0 | 0.0 | 0.00 | 0.00 | 0.00 | 40 | 1011.8 |
| 20260504001524 | 55 | 274 | 0.0 | 1.7 | 0.00 | 0.00 | 0.00 | 38 | 1011.6 |
| 20260504000024 | 56 | 292 | 0.0 | 2.6 | 0.00 | 0.00 | 0.00 | 36 | 1011.3 |
| 20260503234523 | 56 | 241 | 0.0 | 0.9 | 0.00 | 0.00 | 0.00 | 36 | 1011.1 |
| 20260503233023 | 57 | 261 | 0.0 | 0.0 | 0.00 | 0.00 | 0.00 | 34 | 1011.0 |
| 20260503231521 | 58 | 264 | 0.0 | 1.7 | 0.00 | 0.00 | 0.00 | 33 | 1010.8 |
| 20260503230021 | 58 | 6 | 0.0 | 2.6 | 0.00 | 0.00 | 0.00 | 32 | 1010.9 |
| 20260503224520 | 59 | 326 | 0.9 | 4.3 | 0.00 | 0.00 | 0.00 | 30 | 1010.7 |
| 20260503223019 | 60 | 44 | 0.0 | 3.5 | 0.00 | 0.00 | 0.00 | 30 | 1010.6 |
| 20260503221516 | 59 | 270 | 0.0 | 4.3 | 0.00 | 0.00 | 0.00 | 31 | 1010.6 |
| 20260503220015 | 59 | 305 | 0.0 | 3.5 | 0.00 | 0.00 | 0.00 | 30 | 1010.5 |
| 20260503214515 | 59 | 24 | 0.0 | 6.1 | 0.00 | 0.00 | 0.00 | 31 | 1010.6 |
| 20260503213018 | 58 | 333 | 0.0 | 2.6 | 0.00 | 0.00 | 0.00 | 29 | 1010.6 |
| 20260503211513 | 58 | 253 | 0.0 | 5.2 | 0.00 | 0.00 | 0.00 | 29 | 1010.6 |
| 20260503210012 | 58 | 311 | 0.0 | 5.2 | 0.00 | 0.00 | 0.00 | 30 | 1010.5 |
| 20260503204519 | 58 | 328 | 1.7 | 7.8 | 0.00 | 0.00 | 0.00 | 30 | 1010.4 |
| 20260503203014 | 59 | 259 | 0.9 | 5.2 | 0.00 | 0.00 | 0.00 | 30 | 1010.7 |
| 20260503201507 | 58 | 323 | 1.7 | 8.7 | 0.00 | 0.00 | 0.00 | 32 | 1010.7 |
| 20260503200009 | 59 | 261 | 1.7 | 8.7 | 0.00 | 0.00 | 0.00 | 32 | 1010.9 |
| 20260503194505 | 58 | 214 | 0.9 | 5.2 | 0.00 | 0.00 | 0.00 | 33 | 1011.1 |
| 20260503193002 | 57 | 11 | 0.9 | 6.1 | 0.00 | 0.00 | 0.00 | 33 | 1011.0 |
| 20260503191502 | 57 | 352 | 0.9 | 4.3 | 0.00 | 0.00 | 0.00 | 33 | 1011.2 |
| 20260503190106 | 57 | 321 | 0.0 | 3.5 | 0.00 | 0.00 | 0.00 | 34 | 1011.2 |
| 20260503184559 | 57 | 298 | 0.9 | 7.0 | 0.00 | 0.00 | 0.00 | 35 | 1011.4 |
| 20260503183115 | 56 | 250 | 0.9 | 16.5 | 0.00 | 0.00 | 0.00 | 35 | 1011.5 |
| 20260503183003 | 56 | 319 | 1.7 | 16.5 | 0.00 | 0.00 | 0.00 | 35 | 1011.4 |
| 20260503181619 | 55 | 231 | 0.9 | 7.0 | 0.00 | 0.00 | 0.00 | 38 | 1011.4 |
| 20260503180051 | 55 | 279 | 2.6 | 10.4 | 0.00 | 0.00 | 0.00 | 39 | 1011.7 |
| 20260503174548 | 54 | 347 | 2.6 | 7.0 | 0.00 | 0.00 | 0.00 | 39 | 1011.8 |
| 20260503173053 | 53 | 295 | 0.0 | 5.2 | 0.00 | 0.00 | 0.00 | 41 | 1012.1 |
| 20260503171543 | 52 | 311 | 1.7 | 6.1 | 0.00 | 0.00 | 0.00 | 40 | 1012.3 |
| 20260503081602 | 45 | 5 | 0.0 | 0.9 | 0.00 | 0.00 | 0.00 | 54 | 1011.0 |
| 20260503080106 | 45 | 329 | 0.0 | 0.9 | 0.00 | 0.00 | 0.00 | 54 | 1010.9 |
| 20260503071605 | 46 | 8 | 0.0 | 4.3 | 0.00 | 0.00 | 0.00 | 53 | 1010.9 |
| 20260503070112 | 45 | 347 | 0.0 | 0.9 | 0.00 | 0.00 | 0.00 | 53 | 1010.9 |
| 20260503060108 | 47 | 14 | 0.0 | 0.9 | 0.00 | 0.00 | 0.00 | 50 | 1011.1 |
| 20260503054545 | 48 | 24 | 0.0 | 1.7 | 0.00 | 0.00 | 0.00 | 49 | 1011.2 |
| 20260503053044 | 48 | 23 | 0.0 | 0.0 | 0.00 | 0.00 | 0.00 | 50 | 1011.2 |
| 20260503051544 | 48 | 6 | 0.0 | 1.7 | 0.00 | 0.00 | 0.00 | 49 | 1011.4 |
| 20260503050040 | 48 | 316 | 0.0 | 0.9 | 0.00 | 0.00 | 0.00 | 48 | 1011.4 |
| 20260503044542 | 49 | 25 | 0.0 | 1.7 | 0.00 | 0.00 | 0.00 | 47 | 1011.4 |
| 20260503043040 | 49 | 193 | 0.0 | 0.9 | 0.00 | 0.00 | 0.00 | 46 | 1011.6 |
| 20260503041535 | 49 | 349 | 0.0 | 0.9 | 0.00 | 0.00 | 0.00 | 46 | 1011.5 |
| 20260503040033 | 50 | 338 | 0.0 | 1.7 | 0.00 | 0.00 | 0.00 | 45 | 1011.6 |
| 20260503034528 | 50 | 333 | 0.0 | 3.5 | 0.00 | 0.00 | 0.00 | 45 | 1011.5 |
| 20260503033022 | 50 | 25 | 0.0 | 0.9 | 0.00 | 0.00 | 0.00 | 45 | 1011.4 |
| 20260503031518 | 50 | 25 | 0.0 | 0.9 | 0.00 | 0.00 | 0.00 | 46 | 1011.3 |
| 20260503030014 | 50 | 25 | 0.0 | 0.9 | 0.00 | 0.00 | 0.00 | 45 | 1011.4 |
| 20260503024509 | 50 | 25 | 0.0 | 0.9 | 0.00 | 0.00 | 0.00 | 45 | 1011.4 |
| 20260503023005 | 51 | 306 | 0.0 | 0.9 | 0.00 | 0.00 | 0.00 | 44 | 1011.4 |
| 20260503021601 | 51 | 8 | 0.0 | 0.0 | 0.00 | 0.00 | 0.00 | 44 | 1011.6 |
| 20260503020055 | 52 | 15 | 0.0 | 0.0 | 0.00 | 0.00 | 0.00 | 43 | 1011.7 |
| 20260503014551 | 52 | 47 | 0.0 | 0.9 | 0.00 | 0.00 | 0.00 | 43 | 1011.9 |
| 20260503013054 | 52 | 47 | 0.0 | 0.0 | 0.00 | 0.00 | 0.00 | 44 | 1011.8 |
| 20260503011547 | 52 | 47 | 0.0 | 0.9 | 0.00 | 0.00 | 0.00 | 43 | 1011.6 |
| 20260503010054 | 52 | 48 | 0.0 | 0.9 | 0.00 | 0.00 | 0.00 | 44 | 1011.5 |